Regional Weather Roundup
Issued by NWS Sterling, VA

Home | Current Version | Previous Version | Text Only | Print | Product List | Glossary Off
Versions: 1 2 3 4 5 6 7 8 9 10 11 12 13 14 15 16 17 18 19 20 21 22 23 24 25 26 27 28 29 30 31 32 33 34 35 36 37 38 39 40 41 42 43 44 45 46 47 48 49 50

000
ASUS41 KLWX 281110
RWRLWX

REGIONAL WEATHER ROUNDUP
NATIONAL WEATHER SERVICE BALTIMORE MD/WASHINGTON DC
600 AM EST SUN DEC 28 2014

Note: "FAIR" indicates few or no clouds below 12,000 feet
with no significant weather and/or obstructions to visibility.
 TC=TEMPERATURE CELSIUS

 * =Non NWS site. Station does not report precipitation (e.g. rain,
    snow, etc.), thunder, or fog.

DCZ001-MDZ009-015-VAZ040>042-051-053>054-281200-
WASHINGTON METRO

CITY           SKY/WX    TMP DP  RH WIND       PRES   REMARKS
WASHINGTON NAT CLOUDY    51  38  60 S7        29.93F
DULLES         CLOUDY    48  38  68 CALM      29.92S
ANDREWS AFB    CLOUDY    52  38  60 SW8       29.92F
FT BELVOIR     CLOUDY    50  38  65 VRB1      29.93F
QUANTICO       CLOUDY    46  39  76 S8        29.94F
COLLEGE PARK*  CLOUDY    52  37  58 CALM      29.92S
LEESBURG*      CLOUDY    45  37  76 CALM      29.93F
MANASSAS*      CLOUDY    50  39  66 S3        29.92F
GAITHERSBURG*  CLOUDY    45  36  70 CALM      29.96S

$$

MDZ006>007-011-014-281200-
BALTIMORE METRO

CITY           SKY/WX    TMP DP  RH WIND       PRES   REMARKS
BWI AIRPORT    CLOUDY    42  38  85 CALM      29.93S
MD SCIENCE CTR   N/A     45  38  76 MISG      29.94F
MARTIN STATE   PTCLDY    43  43 100 CALM      29.95F
ANNAPOLIS      CLOUDY    45  40  82 CALM      29.93S
FORT MEADE*    CLOUDY    41  37  87 CALM      29.95S

$$

MDZ012-015-019>023-281200-
MARYLAND EASTERN SHORE

CITY           SKY/WX    TMP DP  RH WIND       PRES   REMARKS
OCEAN CITY     CLEAR     48  40  73 SW9       29.97F
SALISBURY      PTCLDY    50  39  66 SW13      29.96S
BAY BRIDGE AP*   N/A     50  37  62 S3        29.93F
CAMBRIDGE*     MOCLDY    52  41  66 CALM      29.97R
EASTON*        CLOUDY    50  41  71 S9        29.98S

$$

MDZ017>025-281200-
SOUTHERN MARYLAND

CITY           SKY/WX    TMP DP  RH WIND       PRES   REMARKS
PATUXENT RIVER MOCLDY    52  37  56 W10       29.97R
ST INIGOES     PTCLDY    52  37  56 SW9       29.97R
LEONARDTOWN*   MOCLDY    52  37  58 SW10      29.97R

$$

MDZ003>005-281200-
NORTH CENTRAL MARYLAND

CITY           SKY/WX    TMP DP  RH WIND       PRES   REMARKS
FREDERICK*     NOT AVBL
HAGERSTOWN APT CLOUDY    49  36  61 W8        29.92R
WESTMINSTER*   CLOUDY    48  37  66 SW7       29.91S

$$

MDZ501>502-281200-
WESTERN MARYLAND

CITY           SKY/WX    TMP DP  RH WIND       PRES   REMARKS
OAKLAND*       CLOUDY    39 N/A N/A SW9       29.94S FOG
CUMBERLAND*    CLOUDY    54  41  62 W9        29.99R

$$

VAZ025>031-281200-
SHENANDOAH VALLEY

CITY           SKY/WX    TMP DP  RH WIND       PRES   REMARKS
WINCHESTER*    CLOUDY    48  28  46 NW3       29.92S
FRONT ROYAL*   FAIR      54  32  43 S3        29.91R
LURAY*         FAIR      54  34  47 SW6       29.92R
NEW MARKET*    FAIR      49  33  55 W5        29.91F
STAUNTON*      CLOUDY    51  32  47 S5        29.94F
WAYNESBORO*    FAIR      54  31  41 S6        29.94F

$$

WVZ021-048>050-054>055-281200-
EASTERN WEST VIRGINIA PANHANDLE

CITY           SKY/WX    TMP DP  RH WIND       PRES   REMARKS
MARTINSBURG    CLOUDY    44  31  60 N3        29.93R
PETERSBURG*    CLOUDY    39  32  77 CALM      29.92S

$$

VAZ036>039-050-281200-
CENTRAL FOOTHILLS

CITY           SKY/WX    TMP DP  RH WIND       PRES   REMARKS
CHARLOTTESVILL CLOUDY    50  37  61 S14       29.92F
CULPEPER*      CLOUDY    48  39  71 CALM      29.92F
ORANGE*        CLOUDY    50  39  66 S6        29.94F
GORDONSVILLE*  FAIR      47  38  71 SW7       29.93F
WARRENTON*     FAIR      51  43  75 S5        29.92S

$$

VAZ055>057-281200-
NORTH AND CENTRAL PIEDMONT

CITY           SKY/WX    TMP DP  RH WIND       PRES   REMARKS
FREDERICKSBRG* MOCLDY    55  39  56 W3        29.94F
STAFFORD*      MOCLDY    53  37  54 SW6       29.98F

$$

NCZ024-NYZ072-PAZ021-071-VAZ022-071-281200-
OTHER REGIONAL OBSERVATIONS

CITY           SKY/WX    TMP DP  RH WIND       PRES   REMARKS
NEW YORK CITY  CLOUDY    48  36  63 VRB5      29.93R
PHILADELPHIA   LGT RAIN  43  38  82 W6        29.95R
PITTSBURGH     LGT RAIN  46  45  96 SW6       29.94R
ROANOKE        CLOUDY    52  32  46 W7        30.00F
RICHMOND       MOCLDY    53  38  56 S10       29.98F
RALEIGH        CLOUDY    53  45  74 SW8       30.07F

$$

ANZ530>537-281200-
MARINE OBSERVATIONS

STATION/POSITION TIME  TEMP    WIND        PRES
                       AIR SEA DIR/SP/G
                 (UTC) (F)     (DEG/KT/KT) (MB)
THOMAS PT LIGHT  1100   48 43  170/  6/  7 1014.5F
BALT KEY BRIDGE  1100   43      30/  2/  2 1013.7S
COVE POINT       1100   53     260/ 12/ 14 1014.8R
LEWISETTA        1100   53 44  240/ 12/ 16 1014.3R
SOLOMONS ISLAND  1100      44                N/A
PINEY POINT      1100          270/  9/ 11   N/A

$$



USA.gov is the U.S. government's official web portal to all federal, state and local government web resources and services.